AirNav   Air Wisconsin Up To $57,000 Bonus
 
 978 users online  

T59 Wheeler Municipal Airport
Wheeler, Texas, USA

GOING TO WHEELER?


FAA INFORMATION EFFECTIVE 30 JANUARY 2020

Location

FAA Identifier: T59
Lat/Long: 35-27-03.9000N 100-11-59.7000W
35-27.065000N 100-11.995000W
35.4510833,-100.1999167
(estimated)
Elevation: 2469.9 ft. / 752.8 m (surveyed)
Variation: 05E (2020)
From city: 4 miles E of WHEELER, TX
Time zone: UTC -6 (UTC -5 during Daylight Saving Time)
Zip code: 79096

Airport Operations

Airport use: Open to the public
Activation date: 07/1985
Control tower: no
ARTCC: ALBUQUERQUE CENTER
FSS: FORT WORTH FLIGHT SERVICE STATION
NOTAMs facility: FTW (NOTAM-D service available)
Attendance: UNATNDD
Wind indicator: lighted
Segmented circle: yes
Lights: LIGHTS OTS INDEFLY.
Beacon: white-green (lighted land airport)
Operates sunset to sunrise.

Airport Communications

CTAF: 122.9
  • APCH/DEP SVC PRVDD BY ALBUQUERQUE ARTCC ON FREQS 127.85/285.475 (AMARILLO RCAG).

Airport Services

Fuel available: 100LL
FOR FUEL CALL 806-826-5537 (SHERIFF'S OFFICE).
Parking: tiedowns

Runway Information

Runway 17/35

Dimensions: 3565 x 60 ft. / 1087 x 18 m
Surface: asphalt, in good condition
Weight bearing capacity: 
Single wheel: 12.0
Runway edge lights: low intensity
RUNWAY 17  RUNWAY 35
Latitude: 35-27.357898N35-26.770397N
Longitude: 100-11.996342W100-11.992372W
Elevation: 2430.6 ft.2469.9 ft.
Traffic pattern: leftleft
Runway heading: 175 magnetic, 180 true355 magnetic, 360 true
Displaced threshold: no57 ft.
Markings: nonprecision, in good conditionnonprecision, in good condition
Touchdown point: yes, no lightsyes, no lights
Obstructions: none
3 FT BRUSH, 98 FT RIGHT AND 74 FT LEFT, 36 FT FM THR.
20 ft. road, 564 ft. from runway, 18:1 slope to clear
4 FT SHRUBS 90 FT FM THLD 96 FT L OF CNTRLN.

Airport Ownership and Management from official FAA records

Ownership: Publicly-owned
Owner: CITY OF WHEELER TX
PO BOX 98
WHEELER, TX 79096
Phone 806-826-3222
Manager: PAUL ARGNBRIGHT
PO BOX 98
WHEELER, TX 79096
Phone (806) 669-4182
PUBLIC WORKS DIRECTOR

Airport Operational Statistics

Aircraft based on the field: 2
Single engine airplanes: 1
Helicopters: 1
    
Aircraft operations: avg 25/month *
67% local general aviation
33% transient general aviation
* for 12-month period ending 14 March 2018

Additional Remarks

407 FT AGL TWR 19 NM SSW OF ARPT.
+10 FT RISING TERRAIN 100 FT L OF CNTRLN.
FOR CD CTC ALBUQUERQUE ARTCC AT 505-856-4861.

Instrument Procedures

NOTE: All procedures below are presented as PDF files. If you need a reader for these files, you should download the free Adobe Reader.

NOT FOR NAVIGATION. Please procure official charts for flight.
FAA instrument procedures published for use from 30 January 2020 at 0901Z to 27 Feburary 2020 at 0900Z.

 
IAPs - Instrument Approach Procedures
RNAV (GPS)-A   download (138KB)
RNAV (GPS)-B   download (158KB)
NOTE: Special Take-Off Minimums/Departure Procedures apply   download (113KB)

Other nearby airports with instrument procedures:

KHHF - Hemphill County Airport (28 nm N)
KELK - Elk City Regional Business Airport (39 nm E)
KPPA - Perry Lefors Field Airport (40 nm W)
1X1 - Higgins-Lipscomb County Airport (40 nm N)
O35 - Hollis Municipal Airport (47 nm S)
 
Loc | Ops | Rwys | IFR | FBO | Links
Com | Nav | Svcs | Stats | Notes

AirBoss

 
Area around T59 (Wheeler Municipal Airport)
 
Road maps at: MapQuest Bing Google
 
Aerial photo
WARNING: Photo may not be current or correct
Aerial photo of T59 (Wheeler Municipal Airport)
Do you have a better or more recent aerial photo of Wheeler Municipal Airport that you would like to share? If so, please send us your photo.

 
Sectional chart

 
Airport distance calculator
Flying to Wheeler Municipal Airport? Find the distance to fly.

From to T59

Sunrise and sunset
Times for 23-Feb-2020
 Local
(UTC-6)
 Zulu
(UTC)
Morning civil twilight06:5312:53
Sunrise07:1913:19
Sunset18:2900:29
Evening civil twilight18:5500:55

Current date and time
Zulu (UTC)  23-Feb-2020 20:59:58
Local (UTC-6)  23-Feb-2020 14:59:58
 
METAR
KHHF 
29nm N 
232035Z AUTO 19020G27KT 10SM BKN095 OVC120 17/09 A2969 RMK AO2 T01710085
KPPA 
38nm W 
232035Z AUTO 19018G25KT 10SM SCT085 BKN110 21/08 A2970 RMK AO2 T02070079
KELK 
39nm E 
232035Z AUTO 19009KT 7SM -RA OVC004 10/10 A2979 RMK AO2 T00990098
KBPC 
48nm NW 
232035Z AUTO 23014G24KT 10SM BKN080 OVC110 21/05 A2967 RMK AO2
KCSM 
49nm E 
232007Z AUTO 18019KT 4SM -RA BR FEW007 BKN070 OVC085 10/09 A2983 RMK AO2 P0002 T01000089
TAF
KCSM 
49nm E 
231740Z 2318/2418 19013KT P6SM SCT040 SCT100 TEMPO 2318/2321 -RA BKN100 FM232300 18014KT P6SM SCT040 BKN100 TEMPO 2400/2403 3SM -TSRA OVC025CB FM240400 24017KT P6SM SCT100 FM241100 33022G32KT P6SM BKN025
NOTAMs
Click for the latest NOTAMs
NOTAMs are issued by the DoD/FAA and will open in a separate window not controlled by AirNav.

 

 
 

FBO, Fuel Providers, and Aircraft Ground Support

  
 Business Name 
 
 Contact 
 
 Services / Description 
 
Fuel Prices
 
Comments
  
City of Wheeler 806-826-3222
no information available

If you are affiliated with City of Wheeler and would like to show here your services, contact info, web link, logo, and more, click here
no prices available
 
   write
Update Fuel Prices
 

Would you like to see your business listed on this page?

 If your business provides an interesting product or service to pilots, flight crews, aircraft, or users of the Wheeler Municipal Airport, you should consider listing it here.  To start the listing process, click on the button below
 
Add a business
 

Other Pages about Wheeler Municipal Airport

Update a link
 
Copyright © AirNav, LLC. All rights reserved. Privacy Policy  Contact